Weather History for KHIE - May, 2014

Change the Weather History Date:

Thursday, May 29, 2014

  Actual Average Record
Temperature  
Mean Temperature 50 °F -  
Max Temperature 70 °F 65 °F 84 °F (1998)
Min Temperature 32 °F 38 °F 28 °F (2008)
Degree Days  
Heating Degree Days 14    
Moisture  
Dew Point 38 °F    
Average Humidity 77    
Maximum Humidity 97    
Minimum Humidity 30    
Precipitation  
Precipitation 0.00 in - - ()
Sea Level Pressure  
Sea Level Pressure 30.21 in    
Wind  
Wind Speed 1 mph (West)    
Max Wind Speed 10 mph    
Max Gust Speed -    
Visibility 7 miles    
Events Fog    
Averages and records for this station are not official NWS values.
T = Trace of Precipitation, MM = Missing Value Source: NWS Daily Summary

Daily Weather History Graph

Daily Weather History Graph

Search for Another Location

Airport or City:

Trip Planner

Search our weather history database for the weather conditions in past years. The results will help you decide how hot, cold, wet, or windy it might be!

Date:

Astronomy

May. 29, 2014 Rise Set
Actual Time 5:06 AM EDT 8:20 PM EDT
Civil Twilight 4:31 AM EDT 8:56 PM EDT
Nautical Twilight 3:45 AM EDT 9:42 PM EDT
Astronomical Twilight 2:49 AM EDT 10:38 PM EDT
Moon 6:00 AM EDT (5/29) 9:06 PM EDT (5/29)
Length of Visible Light 16h 24m
Length of Day
15h 14m
New Moon, 1% of the Moon is Illuminated
May 29
New Moon
Jun 5
First Quarter
Jun 13
Full
Jun 19
Last Quarter
Jun 27
New

Hourly Weather History & Observations

Time (EDT) Temp. Windchill Dew Point Humidity Pressure Visibility Wind Dir Wind Speed Gust Speed Precip Events Conditions
12:52 AM 35.1 °F - 33.1 °F 92% 30.25 in 10.0 mi Calm Calm - N/A   Clear
1:48 AM 33.8 °F - 30.2 °F 87% 30.22 in 1.2 mi Calm Calm - N/A   Partly Cloudy
1:52 AM 33.1 °F - 30.9 °F 92% 30.24 in 0.2 mi Calm Calm - N/A Fog Fog
2:09 AM 33.1 °F - 30.9 °F 92% 30.22 in 2.5 mi Calm Calm - N/A   Mostly Cloudy
2:16 AM 32.0 °F - 30.9 °F 96% 30.22 in 3.0 mi Calm Calm - N/A   Overcast
2:19 AM 33.1 °F - 30.9 °F 92% 30.22 in 1.5 mi Calm Calm - N/A   Overcast
2:30 AM 33.1 °F - 30.9 °F 92% 30.22 in 4.0 mi Calm Calm - N/A   Overcast
2:52 AM 33.1 °F - 30.9 °F 92% 30.25 in 2.5 mi Calm Calm - N/A   Overcast
2:54 AM 33.1 °F - 30.9 °F 92% 30.22 in 1.0 mi Calm Calm - N/A   Overcast
3:10 AM 32.0 °F - 30.0 °F 92% 30.21 in 1.5 mi Calm Calm - N/A   Overcast
3:16 AM 32.0 °F 28.7 °F 30.9 °F 96% 30.21 in 3.0 mi East 3.5 mph - N/A   Overcast
4:52 AM 37.9 °F - 36.0 °F 93% 30.26 in 10.0 mi Calm Calm - N/A   Overcast
5:06 AM 37.9 °F - 37.0 °F 97% 30.23 in 10.0 mi Calm Calm - N/A   Overcast
5:52 AM 39.0 °F - 37.0 °F 93% 30.26 in 10.0 mi Calm Calm - N/A   Overcast
6:37 AM 41.0 °F - 39.0 °F 93% 30.25 in 6.0 mi Calm Calm - N/A   Overcast
6:52 AM 42.1 °F - 39.9 °F 92% 30.28 in 5.0 mi Calm Calm - N/A   Overcast
7:26 AM 42.1 °F - 41.0 °F 96% 30.26 in 1.8 mi Calm Calm - N/A   Overcast
7:34 AM 42.1 °F - 41.0 °F 96% 30.26 in 0.8 mi Calm Calm - N/A   Overcast
7:52 AM 43.0 °F - 42.1 °F 97% 30.27 in 0.5 mi Calm Calm - N/A Fog Fog
8:13 AM 44.1 °F - 42.1 °F 93% 30.25 in 1.5 mi Calm Calm - N/A   Overcast
8:19 AM 44.1 °F - 42.1 °F 93% 30.25 in 3.0 mi Calm Calm - N/A   Overcast
8:52 AM 46.9 °F - 43.0 °F 86% 30.28 in 10.0 mi North 3.5 mph - N/A   Overcast
9:25 AM 50.0 °F - 44.1 °F 80% 30.25 in 10.0 mi Variable 3.5 mph - N/A   Scattered Clouds
9:52 AM 54.0 °F - 45.0 °F 72% 30.26 in 10.0 mi Calm Calm - N/A   Clear
10:52 AM 59.0 °F - 42.1 °F 53% 30.24 in 10.0 mi Calm Calm - N/A   Clear
11:52 AM 62.1 °F - 43.0 °F 50% 30.22 in 10.0 mi West 6.9 mph - N/A   Clear
12:52 PM 64.9 °F - 42.1 °F 43% 30.21 in 10.0 mi West 8.1 mph - N/A   Clear
1:52 PM 68.0 °F - 43.0 °F 40% 30.18 in 10.0 mi Variable 3.5 mph - N/A   Clear
2:52 PM 69.1 °F - 41.0 °F 36% 30.17 in 10.0 mi North - - N/A   Clear
3:52 PM 69.1 °F - 44.1 °F 40% 30.14 in 10.0 mi NW 10.4 mph - N/A   Partly Cloudy
4:52 PM 69.1 °F - 44.1 °F 40% 30.11 in 10.0 mi WSW 4.6 mph - N/A   Clear
5:52 PM 68.0 °F - 42.1 °F 39% 30.10 in 10.0 mi West 6.9 mph - N/A   Clear
6:52 PM 66.9 °F - 34.0 °F 30% 30.12 in 10.0 mi West 8.1 mph - N/A   Scattered Clouds
7:52 PM 62.1 °F - 33.1 °F 34% 30.12 in 10.0 mi SW 3.5 mph - N/A   Clear
8:52 PM 52.0 °F - 42.1 °F 69% 30.12 in 10.0 mi Calm Calm - N/A   Clear
9:52 PM 50.0 °F - 42.1 °F 74% 30.13 in 10.0 mi Calm Calm - N/A   Clear
10:52 PM 46.0 °F - 41.0 °F 83% 30.14 in 10.0 mi Calm Calm - N/A   Clear
11:52 PM 44.1 °F - 39.9 °F 85% 30.12 in 10.0 mi Calm Calm - N/A   Clear